Location: *
(46.1333°S, 161.2167°W)
Time: 10:11:05
(UTC+00:00)

Cosmos 2298 Rocket - Pass Details

Date: 27 October 2020
Orbit: 777 x 783 km, 74.0° (Epoch: 25 November)

Event Time Altitude Azimuth Distance (km) Brightness Sun altitude
Exits shadow 11:06:19 45° 111° (ESE) 1,075 4.8 -30.2°
Drops below altitude 10° 11:10:31 10° 149° (SSE) 2,374 7.4 -30.1°
Sets 11:12:59 0° 154° (SSE) 3,310 8.4 -30.0°
